Tracking 30990 objects as of 9-Jul-2025
HD Live streaming from Space Station
objects crossing your sky now

METOP-C

Track METOP-C now!
10-day predictions


NORAD ID: 43689
Int'l Code: 2018-087A
Perigee: 825.7 km
Apogee: 829.1 km
Inclination: 98.7 °
Period: 101.3 minutes
Semi major axis: 7198 km
RCS: Unknown
Launch date: November 7, 2018
Source: European Organisation for the Exploitation of Meteorological Satellites (EUME)
Launch site: FRENCH GUIANA (FRGUI)
Your satellite tracking list
Your tracking list is empty




NASA's NSSDC Master Catalog

Two Line Element Set (TLE):
1 43689U 18087A   25189.92605112  .00000064  00000-0  49493-4 0  9998
2 43689  98.7143 249.8883 0002356  90.8871 269.2576 14.21494260346064
Source of the keplerian elements: AFSPC